Location: Petruro
(41.0333°N, 14.7833°E)
Time: 08:38:18
(UTC+00:00)

DELTA 2 R/B (1) - Pass Details

Date: 02 November 2021
Orbit: 790 x 802 km, 39.6° (Epoch: 28 November)

Event Time Altitude Azimuth Distance (km) Brightness Sun altitude
Rises 18:42:17 0° 269° (W) 3,302 7.9 -31.9°
Reaches altitude 10° 18:44:47 10° 268° (W) 2,370 6.9 -32.4°
Enters shadow 18:48:36 45° 260° (W) 1,085 4.5 -33.1°
